Time,TemperatureF,DewpointF,PressureIn,WindDirection,WindDirectionDegrees,WindSpeedMPH,WindSpeedGustMPH,Humidity,HourlyPrecipIn,Conditions,Clouds,dailyrainin,SoftwareType,DateUTC
2013-02-19 00:00:00,40.2,25.3,30.20,SSW,205,0.0,0.0,55,0.00,,,0.00,Wunderground v.1.13,2013-02-19 05:00:00,
2013-02-19 00:06:00,40.1,25.6,30.20,SSW,205,0.0,0.0,56,0.00,,,0.00,Wunderground v.1.13,2013-02-19 05:06:00,
2013-02-19 00:10:00,40.1,26.1,30.20,SSW,205,0.0,0.0,57,0.00,,,0.00,Wunderground v.1.13,2013-02-19 05:10:00,
2013-02-19 00:12:00,39.9,25.9,30.20,SSW,205,0.0,0.0,57,0.00,,,0.00,Wunderground v.1.13,2013-02-19 05:12:00,
2013-02-19 00:16:00,39.9,25.9,30.19,SSW,205,0.0,0.0,57,0.00,,,0.00,Wunderground v.1.13,2013-02-19 05:16:00,
2013-02-19 00:22:00,39.6,25.6,30.19,SSW,205,0.0,0.0,57,0.00,,,0.00,Wunderground v.1.13,2013-02-19 05:22:00,
2013-02-19 00:28:00,39.6,26.0,30.19,SSW,205,0.0,0.0,58,0.00,,,0.00,Wunderground v.1.13,2013-02-19 05:28:00,
2013-02-19 00:34:00,39.5,26.3,30.18,SSW,205,0.0,0.0,59,0.00,,,0.00,Wunderground v.1.13,2013-02-19 05:34:00,
2013-02-19 00:40:00,39.2,26.1,30.18,SSW,205,0.0,0.0,59,0.00,,,0.00,Wunderground v.1.13,2013-02-19 05:40:00,
2013-02-19 00:46:00,39.1,26.0,30.17,SSW,205,0.0,0.0,59,0.00,,,0.00,Wunderground v.1.13,2013-02-19 05:46:00,
2013-02-19 00:54:00,38.8,26.1,30.17,SSW,205,0.0,0.0,60,0.00,,,0.00,Wunderground v.1.13,2013-02-19 05:54:00,
2013-02-19 01:00:00,38.5,26.2,30.18,SSW,205,0.0,0.0,61,0.00,,,0.00,Wunderground v.1.13,2013-02-19 06:00:00,
2013-02-19 01:06:00,38.2,26.3,30.18,SSW,205,0.0,0.0,62,0.00,,,0.00,Wunderground v.1.13,2013-02-19 06:06:00,
2013-02-19 01:12:00,37.8,26.3,30.18,SSW,205,0.0,0.0,63,0.00,,,0.00,Wunderground v.1.13,2013-02-19 06:12:00,
2013-02-19 01:18:00,37.5,26.0,30.18,SSW,205,0.0,0.0,63,0.00,,,0.00,Wunderground v.1.13,2013-02-19 06:18:00,
2013-02-19 01:24:00,37.2,26.1,30.18,SSW,205,0.0,0.0,64,0.00,,,0.00,Wunderground v.1.13,2013-02-19 06:24:00,
2013-02-19 01:30:00,37.0,26.3,30.18,SSW,205,0.0,0.0,65,0.00,,,0.00,Wunderground v.1.13,2013-02-19 06:30:00,
2013-02-19 01:36:00,36.9,26.2,30.18,SSW,205,0.0,0.0,65,0.00,,,0.00,Wunderground v.1.13,2013-02-19 06:36:00,
2013-02-19 01:42:00,36.8,26.1,30.18,SSW,205,0.0,0.0,65,0.00,,,0.00,Wunderground v.1.13,2013-02-19 06:42:00,
2013-02-19 01:48:00,36.6,26.3,30.17,SSW,205,0.0,0.0,66,0.00,,,0.00,Wunderground v.1.13,2013-02-19 06:48:00,
2013-02-19 01:54:00,36.5,26.2,30.17,SSW,205,0.0,0.0,66,0.00,,,0.00,Wunderground v.1.13,2013-02-19 06:54:00,
2013-02-19 02:00:00,36.5,26.2,30.17,SSW,205,0.0,0.0,66,0.00,,,0.00,Wunderground v.1.13,2013-02-19 07:00:00,
2013-02-19 02:07:00,36.3,26.4,30.17,SSW,205,0.0,0.0,67,0.00,,,0.00,Wunderground v.1.13,2013-02-19 07:07:00,
2013-02-19 02:12:00,36.2,26.3,30.17,SSW,205,0.0,0.0,67,0.00,,,0.00,Wunderground v.1.13,2013-02-19 07:12:00,
2013-02-19 02:18:00,36.0,26.5,30.16,SSW,205,0.0,0.0,68,0.00,,,0.00,Wunderground v.1.13,2013-02-19 07:18:00,
2013-02-19 02:24:00,35.8,26.3,30.16,SSW,205,0.0,0.0,68,0.00,,,0.00,Wunderground v.1.13,2013-02-19 07:24:00,
2013-02-19 02:30:00,35.5,26.0,30.16,SSW,205,0.0,0.0,68,0.00,,,0.00,Wunderground v.1.13,2013-02-19 07:30:00,
2013-02-19 02:36:00,35.3,26.1,30.15,SSW,205,0.0,0.0,69,0.00,,,0.00,Wunderground v.1.13,2013-02-19 07:36:00,
2013-02-19 02:42:00,35.0,26.2,30.15,SSW,205,0.0,0.0,70,0.00,,,0.00,Wunderground v.1.13,2013-02-19 07:42:00,
2013-02-19 02:48:00,34.9,26.8,30.14,SSW,205,0.0,0.0,72,0.00,,,0.00,Wunderground v.1.13,2013-02-19 07:48:00,
2013-02-19 02:54:00,34.9,26.8,30.14,SSW,205,0.0,0.0,72,0.00,,,0.00,Wunderground v.1.13,2013-02-19 07:54:00,
2013-02-19 03:00:00,34.9,26.8,30.13,SSW,205,0.0,0.0,72,0.00,,,0.00,Wunderground v.1.13,2013-02-19 08:00:00,
2013-02-19 03:06:00,35.0,26.9,30.13,SSW,205,0.0,0.0,72,0.00,,,0.00,Wunderground v.1.13,2013-02-19 08:06:00,
2013-02-19 03:12:00,35.2,27.1,30.13,SSW,205,0.0,0.0,72,0.00,,,0.00,Wunderground v.1.13,2013-02-19 08:12:00,
2013-02-19 03:18:00,35.3,26.8,30.12,SSW,205,0.0,0.0,71,0.00,,,0.00,Wunderground v.1.13,2013-02-19 08:18:00,
2013-02-19 03:24:00,35.5,27.0,30.12,SSW,205,0.0,0.0,71,0.00,,,0.00,Wunderground v.1.13,2013-02-19 08:24:00,
2013-02-19 03:30:00,35.5,27.4,30.12,SSW,205,0.0,0.0,72,0.00,,,0.00,Wunderground v.1.13,2013-02-19 08:30:00,
2013-02-19 03:36:00,35.6,27.5,30.11,SSW,205,0.0,0.0,72,0.00,,,0.00,Wunderground v.1.13,2013-02-19 08:36:00,
2013-02-19 03:42:00,35.6,27.5,30.11,SSW,205,0.0,0.0,72,0.00,,,0.00,Wunderground v.1.13,2013-02-19 08:42:00,
2013-02-19 03:48:00,35.8,27.3,30.11,SSW,205,0.0,0.0,71,0.00,,,0.00,Wunderground v.1.13,2013-02-19 08:48:00,
2013-02-19 03:54:00,35.8,27.7,30.11,SSW,205,0.0,0.0,72,0.00,,,0.00,Wunderground v.1.13,2013-02-19 08:54:00,
2013-02-19 04:00:00,35.8,27.7,30.11,SSW,205,0.0,0.0,72,0.00,,,0.00,Wunderground v.1.13,2013-02-19 09:00:00,
2013-02-19 04:06:00,35.8,27.7,30.09,SSW,205,0.0,0.0,72,0.00,,,0.00,Wunderground v.1.13,2013-02-19 09:06:00,
2013-02-19 04:12:00,35.8,27.7,30.09,SSW,205,0.0,0.0,72,0.00,,,0.00,Wunderground v.1.13,2013-02-19 09:12:00,
2013-02-19 04:18:00,35.8,27.7,30.09,SSW,205,0.0,0.0,72,0.00,,,0.00,Wunderground v.1.13,2013-02-19 09:18:00,
2013-02-19 04:24:00,35.8,27.3,30.09,SSW,205,0.0,0.0,71,0.00,,,0.00,Wunderground v.1.13,2013-02-19 09:24:00,
2013-02-19 04:30:00,35.8,27.3,30.09,SSW,205,0.0,0.0,71,0.00,,,0.00,Wunderground v.1.13,2013-02-19 09:30:00,
2013-02-19 04:36:00,35.6,27.1,30.09,SSW,205,0.0,0.0,71,0.00,,,0.00,Wunderground v.1.13,2013-02-19 09:36:00,
2013-02-19 04:42:00,35.6,27.5,30.09,SSW,205,0.0,0.0,72,0.00,,,0.00,Wunderground v.1.13,2013-02-19 09:42:00,
2013-02-19 04:48:00,35.6,27.5,30.09,SSW,205,0.0,0.0,72,0.00,,,0.00,Wunderground v.1.13,2013-02-19 09:48:00,
2013-02-19 04:54:00,35.6,27.5,30.09,SSW,205,0.0,0.0,72,0.00,,,0.00,Wunderground v.1.13,2013-02-19 09:54:00,
2013-02-19 05:00:00,35.5,27.4,30.08,SSW,205,0.0,0.0,72,0.00,,,0.00,Wunderground v.1.13,2013-02-19 10:00:00,
2013-02-19 05:06:00,35.5,27.4,30.08,SSW,205,0.0,0.0,72,0.00,,,0.00,Wunderground v.1.13,2013-02-19 10:06:00,
2013-02-19 05:12:00,35.5,27.7,30.08,SSW,205,0.0,0.0,73,0.00,,,0.00,Wunderground v.1.13,2013-02-19 10:12:00,
2013-02-19 05:18:00,35.3,27.5,30.07,SSW,205,0.0,0.0,73,0.00,,,0.00,Wunderground v.1.13,2013-02-19 10:18:00,
2013-02-19 05:24:00,35.2,27.7,30.07,SSW,205,0.0,0.0,74,0.00,,,0.00,Wunderground v.1.13,2013-02-19 10:24:00,
2013-02-19 05:30:00,35.0,27.9,30.08,SSW,205,0.0,0.0,75,0.00,,,0.00,Wunderground v.1.13,2013-02-19 10:30:00,
2013-02-19 05:36:00,34.9,27.8,30.08,SSW,205,0.0,0.0,75,0.00,,,0.00,Wunderground v.1.13,2013-02-19 10:36:00,
2013-02-19 05:42:00,34.7,27.9,30.08,SSW,205,0.0,0.0,76,0.00,,,0.00,Wunderground v.1.13,2013-02-19 10:42:00,
2013-02-19 05:48:00,34.6,27.8,30.07,SSW,205,0.0,0.0,76,0.00,,,0.00,Wunderground v.1.13,2013-02-19 10:48:00,
2013-02-19 05:54:00,34.4,27.6,30.07,SSW,205,0.0,0.0,76,0.00,,,0.00,Wunderground v.1.13,2013-02-19 10:54:00,
2013-02-19 06:00:00,34.3,27.8,30.07,SSW,205,0.0,0.0,77,0.00,,,0.00,Wunderground v.1.13,2013-02-19 11:00:00,
2013-02-19 06:06:00,34.3,27.8,30.07,SSW,205,0.0,0.0,77,0.00,,,0.00,Wunderground v.1.13,2013-02-19 11:06:00,
2013-02-19 06:12:00,34.3,27.8,30.07,SSW,205,0.0,0.0,77,0.00,,,0.00,Wunderground v.1.13,2013-02-19 11:12:00,
2013-02-19 06:18:00,34.4,28.2,30.07,SSW,205,0.0,0.0,78,0.00,,,0.00,Wunderground v.1.13,2013-02-19 11:18:00,
2013-02-19 06:24:00,34.6,28.1,30.07,SSW,205,0.0,0.0,77,0.00,,,0.00,Wunderground v.1.13,2013-02-19 11:24:00,
2013-02-19 06:30:00,34.7,28.2,30.06,SSW,210,0.0,0.0,77,0.00,,,0.00,Wunderground v.1.13,2013-02-19 11:30:00,
2013-02-19 06:36:00,35.0,28.5,30.06,SSW,210,0.0,0.0,77,0.00,,,0.00,Wunderground v.1.13,2013-02-19 11:36:00,
2013-02-19 06:42:00,35.6,28.8,30.06,SSW,210,0.0,0.0,76,0.00,,,0.00,Wunderground v.1.13,2013-02-19 11:42:00,
2013-02-19 06:48:00,35.9,28.7,30.05,SSW,210,0.0,0.0,75,0.00,,,0.00,Wunderground v.1.13,2013-02-19 11:48:00,
2013-02-19 06:54:00,36.3,29.1,30.05,SSW,210,0.0,2.0,75,0.00,,,0.00,Wunderground v.1.13,2013-02-19 11:54:00,
2013-02-19 07:00:00,36.8,29.0,30.05,SSW,210,0.0,0.0,73,0.00,,,0.00,Wunderground v.1.13,2013-02-19 12:00:00,
2013-02-19 07:06:00,37.2,29.3,30.04,SSW,210,0.0,0.0,73,0.00,,,0.00,Wunderground v.1.13,2013-02-19 12:06:00,
2013-02-19 07:12:00,37.5,29.6,30.04,SSW,210,0.0,0.0,73,0.00,,,0.00,Wunderground v.1.13,2013-02-19 12:12:00,
2013-02-19 07:18:00,37.6,29.4,30.05,SSW,210,0.0,0.0,72,0.00,,,0.00,Wunderground v.1.13,2013-02-19 12:18:00,
2013-02-19 07:24:00,37.9,29.7,30.05,SSW,210,0.0,0.0,72,0.00,,,0.00,Wunderground v.1.13,2013-02-19 12:24:00,
2013-02-19 07:30:00,38.0,29.8,30.04,SSW,210,0.0,0.0,72,0.00,,,0.00,Wunderground v.1.13,2013-02-19 12:30:00,
2013-02-19 07:36:00,38.2,30.0,30.04,SSW,210,0.0,0.0,72,0.00,,,0.00,Wunderground v.1.13,2013-02-19 12:36:00,
2013-02-19 07:42:00,38.2,30.0,30.04,SSW,210,0.0,0.0,72,0.00,,,0.00,Wunderground v.1.13,2013-02-19 12:42:00,
2013-02-19 07:48:00,38.3,30.1,30.05,SSW,210,0.0,0.0,72,0.00,,,0.00,Wunderground v.1.13,2013-02-19 12:48:00,
2013-02-19 07:54:00,38.3,30.1,30.05,SSW,210,0.0,0.0,72,0.00,,,0.00,Wunderground v.1.13,2013-02-19 12:54:00,
2013-02-19 08:00:00,38.5,30.6,30.05,WSW,250,0.0,0.0,73,0.00,,,0.00,Wunderground v.1.13,2013-02-19 13:00:00,
2013-02-19 08:06:00,38.6,31.0,30.04,WSW,250,0.0,0.0,74,0.00,,,0.00,Wunderground v.1.13,2013-02-19 13:06:00,
2013-02-19 08:12:00,38.8,31.2,30.04,WSW,250,0.0,0.0,74,0.00,,,0.00,Wunderground v.1.13,2013-02-19 13:12:00,
2013-02-19 08:18:00,39.1,31.2,30.04,WSW,250,0.0,0.0,73,0.00,,,0.00,Wunderground v.1.13,2013-02-19 13:18:00,
2013-02-19 08:24:00,39.3,31.4,30.04,WSW,250,0.0,0.0,73,0.00,,,0.00,Wunderground v.1.13,2013-02-19 13:24:00,
2013-02-19 08:30:00,39.8,31.8,30.03,WSW,250,0.0,0.0,73,0.00,,,0.00,Wunderground v.1.13,2013-02-19 13:30:00,
2013-02-19 08:36:00,40.1,32.1,30.03,WSW,250,0.0,0.0,73,0.00,,,0.00,Wunderground v.1.13,2013-02-19 13:36:00,
2013-02-19 08:42:00,40.6,33.0,30.03,WSW,250,0.0,0.0,74,0.00,,,0.00,Wunderground v.1.13,2013-02-19 13:42:00,
2013-02-19 08:48:00,41.1,33.4,30.02,WSW,250,0.0,0.0,74,0.00,,,0.00,Wunderground v.1.13,2013-02-19 13:48:00,
2013-02-19 08:54:00,41.5,33.8,30.02,WSW,250,0.0,0.0,74,0.00,,,0.00,Wunderground v.1.13,2013-02-19 13:54:00,
2013-02-19 09:00:00,42.1,34.7,30.02,WSW,250,0.0,0.0,75,0.00,,,0.00,Wunderground v.1.13,2013-02-19 14:00:00,
2013-02-19 09:06:00,42.6,34.9,30.01,WSW,248,0.0,0.0,74,0.00,,,0.00,Wunderground v.1.13,2013-02-19 14:06:00,
2013-02-19 09:12:00,43.1,35.4,30.01,SSW,200,0.0,0.0,74,0.00,,,0.00,Wunderground v.1.13,2013-02-19 14:12:00,
2013-02-19 09:18:00,43.5,35.8,30.00,SSW,200,0.0,0.0,74,0.00,,,0.00,Wunderground v.1.13,2013-02-19 14:18:00,
2013-02-19 09:24:00,43.9,35.8,30.00,SSW,212,0.0,2.0,73,0.00,,,0.00,Wunderground v.1.13,2013-02-19 14:24:00,
2013-02-19 09:30:00,44.3,36.2,30.00,SSW,212,0.0,0.0,73,0.00,,,0.00,Wunderground v.1.13,2013-02-19 14:30:00,
2013-02-19 09:36:00,44.6,37.2,30.01,SSW,192,0.0,0.0,75,0.00,,,0.00,Wunderground v.1.13,2013-02-19 14:36:00,
2013-02-19 09:42:00,44.8,37.4,30.01,West,275,0.0,0.0,75,0.00,,,0.00,Wunderground v.1.13,2013-02-19 14:42:00,
2013-02-19 09:48:00,44.8,37.0,30.00,West,275,0.0,0.0,74,0.00,,,0.00,Wunderground v.1.13,2013-02-19 14:48:00,
2013-02-19 09:54:00,44.8,37.4,30.00,West,275,0.0,0.0,75,0.00,,,0.00,Wunderground v.1.13,2013-02-19 14:54:00,
2013-02-19 10:00:00,44.6,38.2,30.00,WSW,247,0.0,2.0,78,0.00,,,0.01,Wunderground v.1.13,2013-02-19 15:00:00,
2013-02-19 10:06:00,44.5,38.4,30.01,WSW,247,0.0,0.0,79,0.00,,,0.01,Wunderground v.1.13,2013-02-19 15:06:00,
2013-02-19 10:12:00,44.2,39.1,30.01,WSW,247,0.0,0.0,82,0.04,,,0.02,Wunderground v.1.13,2013-02-19 15:12:00,
2013-02-19 10:18:00,44.1,39.3,30.01,WSW,247,0.0,0.0,83,0.09,,,0.03,Wunderground v.1.13,2013-02-19 15:18:00,
2013-02-19 10:24:00,43.8,39.0,30.01,WSW,247,0.0,0.0,83,0.08,,,0.03,Wunderground v.1.13,2013-02-19 15:24:00,
2013-02-19 10:30:00,43.6,39.4,30.01,WSW,247,0.0,0.0,85,0.07,,,0.04,Wunderground v.1.13,2013-02-19 15:30:00,
2013-02-19 10:36:00,43.3,39.4,30.00,WSW,247,0.0,0.0,86,0.05,,,0.04,Wunderground v.1.13,2013-02-19 15:36:00,
2013-02-19 10:42:00,43.1,39.5,30.00,WSW,247,0.0,0.0,87,0.04,,,0.05,Wunderground v.1.13,2013-02-19 15:42:00,
2013-02-19 10:48:00,42.9,39.3,29.99,WSW,247,0.0,0.0,87,0.04,,,0.05,Wunderground v.1.13,2013-02-19 15:48:00,
2013-02-19 10:54:00,42.8,39.5,29.99,WSW,247,0.0,0.0,88,0.06,,,0.06,Wunderground v.1.13,2013-02-19 15:54:00,
2013-02-19 11:00:00,42.6,39.6,29.99,WSW,243,0.0,0.0,89,0.06,,,0.06,Wunderground v.1.13,2013-02-19 16:00:00,
2013-02-19 11:06:00,42.5,39.8,29.98,WSW,243,0.0,0.0,90,0.04,,,0.06,Wunderground v.1.13,2013-02-19 16:06:00,
2013-02-19 11:12:00,42.5,40.3,29.98,SW,230,0.0,0.0,92,0.00,,,0.07,Wunderground v.1.13,2013-02-19 16:12:00,
2013-02-19 11:18:00,42.9,41.0,29.97,SW,230,0.0,0.0,93,0.00,,,0.07,Wunderground v.1.13,2013-02-19 16:18:00,
2013-02-19 11:24:00,43.1,41.2,29.97,SW,223,1.0,1.0,93,0.00,,,0.07,Wunderground v.1.13,2013-02-19 16:24:00,
2013-02-19 11:30:00,43.2,41.3,29.97,SW,223,1.0,1.0,93,0.00,,,0.07,Wunderground v.1.13,2013-02-19 16:30:00,
2013-02-19 11:36:00,43.3,41.4,29.96,SW,223,0.0,0.0,93,0.00,,,0.07,Wunderground v.1.13,2013-02-19 16:36:00,
2013-02-19 11:42:00,43.6,41.7,29.96,WSW,247,0.0,2.0,93,0.00,,,0.07,Wunderground v.1.13,2013-02-19 16:42:00,
2013-02-19 11:48:00,44.1,42.5,29.95,SW,217,1.0,2.0,94,0.00,,,0.08,Wunderground v.1.13,2013-02-19 16:48:00,
2013-02-19 11:54:00,44.5,42.9,29.95,SSW,195,1.0,1.0,94,0.00,,,0.08,Wunderground v.1.13,2013-02-19 16:54:00,
2013-02-19 12:00:00,44.8,43.2,29.94,SSW,206,1.0,1.0,94,0.00,,,0.08,Wunderground v.1.13,2013-02-19 17:00:00,
2013-02-19 12:06:00,45.4,43.8,29.94,West,268,2.0,2.0,94,0.00,,,0.08,Wunderground v.1.13,2013-02-19 17:06:00,
2013-02-19 12:12:00,45.7,44.1,29.94,West,265,1.0,1.0,94,0.00,,,0.08,Wunderground v.1.13,2013-02-19 17:12:00,
2013-02-19 12:18:00,46.0,44.4,29.92,SW,219,1.0,1.0,94,0.00,,,0.08,Wunderground v.1.13,2013-02-19 17:18:00,
2013-02-19 12:24:00,46.2,44.6,29.92,SW,227,2.0,5.0,94,0.00,,,0.08,Wunderground v.1.13,2013-02-19 17:24:00,
2013-02-19 12:30:00,46.4,44.8,29.92,WSW,243,3.0,3.0,94,0.00,,,0.08,Wunderground v.1.13,2013-02-19 17:30:00,
2013-02-19 12:36:00,46.7,44.8,29.91,SSW,213,2.0,3.0,93,0.00,,,0.08,Wunderground v.1.13,2013-02-19 17:36:00,
2013-02-19 12:42:00,46.8,44.9,29.91,SW,233,1.0,1.0,93,0.00,,,0.08,Wunderground v.1.13,2013-02-19 17:42:00,
2013-02-19 12:48:00,47.0,45.1,29.90,SW,232,1.0,3.0,93,0.00,,,0.08,Wunderground v.1.13,2013-02-19 17:48:00,
2013-02-19 12:54:00,47.3,45.4,29.90,SSW,213,2.0,2.0,93,0.00,,,0.08,Wunderground v.1.13,2013-02-19 17:54:00,
2013-02-19 13:00:00,47.7,46.1,29.90,SSW,205,0.0,0.0,94,0.00,,,0.08,Wunderground v.1.13,2013-02-19 18:00:00,
2013-02-19 13:06:00,48.0,46.4,29.88,SW,219,2.0,2.0,94,0.00,,,0.09,Wunderground v.1.13,2013-02-19 18:06:00,
2013-02-19 13:12:00,48.2,46.8,29.88,WSW,254,2.0,3.0,95,0.00,,,0.09,Wunderground v.1.13,2013-02-19 18:12:00,
2013-02-19 13:18:00,48.5,47.1,29.86,SSW,200,1.0,1.0,95,0.00,,,0.09,Wunderground v.1.13,2013-02-19 18:18:00,
2013-02-19 13:24:00,48.6,47.2,29.86,WNW,291,0.0,1.0,95,0.00,,,0.09,Wunderground v.1.13,2013-02-19 18:24:00,
2013-02-19 13:30:00,49.1,47.7,29.84,West,261,1.0,2.0,95,0.00,,,0.09,Wunderground v.1.13,2013-02-19 18:30:00,
2013-02-19 13:36:00,49.4,48.3,29.84,WSW,256,2.0,3.0,96,0.00,,,0.09,Wunderground v.1.13,2013-02-19 18:36:00,
2013-02-19 13:42:00,49.6,48.5,29.84,West,265,1.0,1.0,96,0.00,,,0.09,Wunderground v.1.13,2013-02-19 18:42:00,
2013-02-19 13:48:00,49.8,48.7,29.84,WSW,246,0.0,1.0,96,0.00,,,0.10,Wunderground v.1.13,2013-02-19 18:48:00,
2013-02-19 13:54:00,49.9,48.8,29.84,WSW,246,0.0,0.0,96,0.11,,,0.11,Wunderground v.1.13,2013-02-19 18:54:00,
2013-02-19 14:00:00,49.9,48.8,29.84,West,261,1.0,1.0,96,0.11,,,0.12,Wunderground v.1.13,2013-02-19 19:00:00,
2013-02-19 14:07:00,49.9,48.8,29.84,West,272,1.0,1.0,96,0.10,,,0.13,Wunderground v.1.13,2013-02-19 19:07:00,
2013-02-19 14:12:00,49.9,48.8,29.84,SW,227,1.0,1.0,96,0.06,,,0.13,Wunderground v.1.13,2013-02-19 19:12:00,
2013-02-19 14:18:00,49.9,48.8,29.84,WSW,241,1.0,3.0,96,0.05,,,0.14,Wunderground v.1.13,2013-02-19 19:18:00,
2013-02-19 14:24:00,49.9,48.8,29.84,West,265,2.0,2.0,96,0.05,,,0.14,Wunderground v.1.13,2013-02-19 19:24:00,
2013-02-19 14:30:00,50.1,49.0,29.83,WNW,299,1.0,1.0,96,0.00,,,0.14,Wunderground v.1.13,2013-02-19 19:30:00,
2013-02-19 14:36:00,50.2,49.1,29.83,SSW,195,1.0,1.0,96,0.00,,,0.14,Wunderground v.1.13,2013-02-19 19:36:00,
2013-02-19 14:42:00,50.2,49.1,29.83,SW,216,1.0,1.0,96,0.00,,,0.14,Wunderground v.1.13,2013-02-19 19:42:00,
2013-02-19 14:48:00,50.2,49.1,29.82,WSW,248,1.0,1.0,96,0.00,,,0.14,Wunderground v.1.13,2013-02-19 19:48:00,
2013-02-19 14:54:00,50.2,49.1,29.82,SW,220,1.0,1.0,96,0.00,,,0.14,Wunderground v.1.13,2013-02-19 19:54:00,
2013-02-19 15:00:00,50.2,49.1,29.82,West,278,2.0,5.0,96,0.00,,,0.14,Wunderground v.1.13,2013-02-19 20:00:00,
2013-02-19 15:06:00,50.4,49.3,29.81,SW,222,1.0,1.0,96,0.00,,,0.14,Wunderground v.1.13,2013-02-19 20:06:00,
2013-02-19 15:12:00,50.4,49.0,29.81,West,271,1.0,1.0,95,0.00,,,0.14,Wunderground v.1.13,2013-02-19 20:12:00,
2013-02-19 15:18:00,50.4,49.0,29.81,WSW,250,1.0,2.0,95,0.00,,,0.14,Wunderground v.1.13,2013-02-19 20:18:00,
2013-02-19 15:24:00,50.4,49.0,29.81,SW,236,2.0,2.0,95,0.00,,,0.14,Wunderground v.1.13,2013-02-19 20:24:00,
2013-02-19 15:30:00,50.4,49.0,29.81,SW,236,2.0,2.0,95,0.00,,,0.14,Wunderground v.1.13,2013-02-19 20:30:00,
2013-02-19 15:37:00,50.4,48.7,29.81,West,267,3.0,3.0,94,0.00,,,0.14,Wunderground v.1.13,2013-02-19 20:37:00,
2013-02-19 15:42:00,50.4,48.7,29.81,WNW,294,2.0,3.0,94,0.00,,,0.14,Wunderground v.1.13,2013-02-19 20:42:00,
2013-02-19 15:48:00,50.4,48.5,29.80,West,261,3.0,3.0,93,0.00,,,0.14,Wunderground v.1.13,2013-02-19 20:48:00,
2013-02-19 15:54:00,50.4,48.5,29.80,SSW,202,3.0,3.0,93,0.00,,,0.14,Wunderground v.1.13,2013-02-19 20:54:00,
2013-02-19 16:00:00,50.4,48.2,29.81,West,261,2.0,3.0,92,0.00,,,0.14,Wunderground v.1.13,2013-02-19 21:00:00,
2013-02-19 16:06:00,50.4,48.2,29.81,West,277,3.0,3.0,92,0.00,,,0.14,Wunderground v.1.13,2013-02-19 21:06:00,
2013-02-19 16:12:00,50.4,48.2,29.81,SW,234,2.0,2.0,92,0.00,,,0.14,Wunderground v.1.13,2013-02-19 21:12:00,
2013-02-19 16:18:00,50.2,47.7,29.80,West,265,2.0,2.0,91,0.00,,,0.14,Wunderground v.1.13,2013-02-19 21:18:00,
2013-02-19 16:24:00,50.2,47.7,29.80,West,275,2.0,2.0,91,0.00,,,0.14,Wunderground v.1.13,2013-02-19 21:24:00,
2013-02-19 16:30:00,50.2,47.4,29.80,WSW,240,1.0,1.0,90,0.00,,,0.14,Wunderground v.1.13,2013-02-19 21:30:00,
2013-02-19 16:36:00,50.1,47.3,29.80,WSW,240,0.0,0.0,90,0.00,,,0.14,Wunderground v.1.13,2013-02-19 21:36:00,
2013-02-19 16:42:00,50.1,47.3,29.80,SSW,206,0.0,6.0,90,0.00,,,0.14,Wunderground v.1.13,2013-02-19 21:42:00,
2013-02-19 16:48:00,50.1,47.3,29.80,West,264,1.0,1.0,90,0.00,,,0.14,Wunderground v.1.13,2013-02-19 21:48:00,
2013-02-19 16:54:00,49.9,47.1,29.80,West,265,1.0,1.0,90,0.00,,,0.14,Wunderground v.1.13,2013-02-19 21:54:00,
2013-02-19 17:00:00,49.9,47.1,29.80,ESE,103,0.0,0.0,90,0.00,,,0.14,Wunderground v.1.13,2013-02-19 22:00:00,
2013-02-19 17:07:00,49.9,47.1,29.80,West,267,1.0,1.0,90,0.00,,,0.14,Wunderground v.1.13,2013-02-19 22:07:00,
2013-02-19 17:12:00,49.8,46.7,29.80,West,263,1.0,3.0,89,0.00,,,0.14,Wunderground v.1.13,2013-02-19 22:12:00,
2013-02-19 17:18:00,49.8,46.7,29.81,West,272,1.0,1.0,89,0.00,,,0.14,Wunderground v.1.13,2013-02-19 22:18:00,
2013-02-19 17:24:00,49.8,46.7,29.81,West,268,0.0,1.0,89,0.00,,,0.14,Wunderground v.1.13,2013-02-19 22:24:00,
2013-02-19 17:30:00,49.8,46.4,29.82,West,268,0.0,0.0,88,0.00,,,0.14,Wunderground v.1.13,2013-02-19 22:30:00,
2013-02-19 17:37:00,49.6,46.2,29.82,WSW,258,1.0,2.0,88,0.00,,,0.14,Wunderground v.1.13,2013-02-19 22:37:00,
2013-02-19 17:42:00,49.6,45.9,29.82,WSW,247,1.0,4.0,87,0.00,,,0.14,Wunderground v.1.13,2013-02-19 22:42:00,
2013-02-19 17:48:00,49.5,45.5,29.83,WSW,239,2.0,2.0,86,0.00,,,0.14,Wunderground v.1.13,2013-02-19 22:48:00,
2013-02-19 17:54:00,49.5,45.5,29.83,WSW,248,0.0,0.0,86,0.00,,,0.14,Wunderground v.1.13,2013-02-19 22:54:00,
2013-02-19 18:00:00,49.5,45.5,29.84,WSW,248,0.0,0.0,86,0.00,,,0.14,Wunderground v.1.13,2013-02-19 23:00:00,
2013-02-19 18:06:00,49.5,45.5,29.84,WSW,248,0.0,0.0,86,0.00,,,0.14,Wunderground v.1.13,2013-02-19 23:06:00,
2013-02-19 18:12:00,49.4,45.4,29.84,West,265,0.0,0.0,86,0.00,,,0.14,Wunderground v.1.13,2013-02-19 23:12:00,
2013-02-19 18:18:00,49.2,45.2,29.84,WSW,250,0.0,0.0,86,0.00,,,0.14,Wunderground v.1.13,2013-02-19 23:18:00,
2013-02-19 18:24:00,49.2,45.2,29.84,SSW,203,0.0,0.0,86,0.00,,,0.14,Wunderground v.1.13,2013-02-19 23:24:00,
2013-02-19 18:30:00,49.1,45.1,29.84,SW,219,0.0,0.0,86,0.00,,,0.14,Wunderground v.1.13,2013-02-19 23:30:00,
2013-02-19 18:36:00,48.9,44.9,29.84,West,277,0.0,0.0,86,0.00,,,0.14,Wunderground v.1.13,2013-02-19 23:36:00,
2013-02-19 18:42:00,48.8,44.5,29.84,West,277,0.0,0.0,85,0.00,,,0.14,Wunderground v.1.13,2013-02-19 23:42:00,
2013-02-19 18:48:00,48.6,44.3,29.85,West,277,0.0,0.0,85,0.00,,,0.14,Wunderground v.1.13,2013-02-19 23:48:00,
2013-02-19 18:54:00,48.5,44.2,29.85,West,277,0.0,0.0,85,0.00,,,0.14,Wunderground v.1.13,2013-02-19 23:54:00,
2013-02-19 19:00:00,48.2,43.9,29.86,West,277,0.0,0.0,85,0.00,,,0.14,Wunderground v.1.13,2013-02-20 00:00:00,
2013-02-19 19:07:00,47.9,43.6,29.86,West,277,0.0,0.0,85,0.00,,,0.14,Wunderground v.1.13,2013-02-20 00:07:00,
2013-02-19 19:12:00,47.7,43.4,29.86,West,277,0.0,0.0,85,0.00,,,0.14,Wunderground v.1.13,2013-02-20 00:12:00,
2013-02-19 19:18:00,47.3,43.0,29.86,West,277,0.0,0.0,85,0.00,,,0.14,Wunderground v.1.13,2013-02-20 00:18:00,
2013-02-19 19:24:00,47.0,42.7,29.86,West,277,0.0,0.0,85,0.00,,,0.14,Wunderground v.1.13,2013-02-20 00:24:00,
2013-02-19 19:30:00,46.5,42.5,29.86,West,277,0.0,0.0,86,0.00,,,0.14,Wunderground v.1.13,2013-02-20 00:30:00,
2013-02-19 19:36:00,46.2,42.2,29.87,West,277,0.0,0.0,86,0.00,,,0.14,Wunderground v.1.13,2013-02-20 00:36:00,
2013-02-19 19:42:00,46.0,42.3,29.87,West,277,0.0,0.0,87,0.00,,,0.14,Wunderground v.1.13,2013-02-20 00:42:00,
2013-02-19 19:48:00,45.7,42.3,29.87,West,277,0.0,1.0,88,0.00,,,0.14,Wunderground v.1.13,2013-02-20 00:48:00,
2013-02-19 19:54:00,45.4,42.1,29.87,West,277,0.0,0.0,88,0.00,,,0.14,Wunderground v.1.13,2013-02-20 00:54:00,
2013-02-19 20:00:00,45.1,42.1,29.87,West,277,0.0,0.0,89,0.00,,,0.14,Wunderground v.1.13,2013-02-20 01:00:00,
2013-02-19 20:06:00,44.8,41.8,29.88,West,277,0.0,0.0,89,0.00,,,0.14,Wunderground v.1.13,2013-02-20 01:06:00,
2013-02-19 20:12:00,44.6,41.6,29.88,West,277,0.0,0.0,89,0.00,,,0.14,Wunderground v.1.13,2013-02-20 01:12:00,
2013-02-19 20:18:00,44.3,41.6,29.88,SSW,196,0.0,0.0,90,0.00,,,0.14,Wunderground v.1.13,2013-02-20 01:18:00,
2013-02-19 20:24:00,44.2,41.5,29.88,SSW,198,0.0,0.0,90,0.00,,,0.14,Wunderground v.1.13,2013-02-20 01:24:00,
2013-02-19 20:30:00,43.9,41.2,29.88,SSW,205,0.0,0.0,90,0.00,,,0.14,Wunderground v.1.13,2013-02-20 01:30:00,
2013-02-19 20:36:00,43.8,41.3,29.88,SSW,205,0.0,0.0,91,0.00,,,0.14,Wunderground v.1.13,2013-02-20 01:36:00,
2013-02-19 20:42:00,43.6,41.1,29.88,West,261,0.0,0.0,91,0.00,,,0.14,Wunderground v.1.13,2013-02-20 01:42:00,
2013-02-19 20:48:00,43.6,41.4,29.88,West,261,0.0,0.0,92,0.00,,,0.14,Wunderground v.1.13,2013-02-20 01:48:00,
2013-02-19 20:54:00,43.5,41.3,29.88,West,261,0.0,0.0,92,0.00,,,0.14,Wunderground v.1.13,2013-02-20 01:54:00,
2013-02-19 21:00:00,43.5,41.6,29.89,West,261,0.0,0.0,93,0.00,,,0.14,Wunderground v.1.13,2013-02-20 02:00:00,
2013-02-19 21:06:00,43.5,41.6,29.89,West,261,0.0,1.0,93,0.00,,,0.14,Wunderground v.1.13,2013-02-20 02:06:00,
2013-02-19 21:12:00,43.5,41.6,29.89,West,261,0.0,0.0,93,0.00,,,0.14,Wunderground v.1.13,2013-02-20 02:12:00,
2013-02-19 21:18:00,43.3,41.1,29.89,West,260,0.0,0.0,92,0.00,,,0.14,Wunderground v.1.13,2013-02-20 02:18:00,
2013-02-19 21:24:00,43.3,41.1,29.89,West,260,0.0,0.0,92,0.00,,,0.14,Wunderground v.1.13,2013-02-20 02:24:00,
2013-02-19 21:30:00,43.2,41.0,29.89,West,260,0.0,0.0,92,0.00,,,0.14,Wunderground v.1.13,2013-02-20 02:30:00,
2013-02-19 21:36:00,43.1,40.9,29.89,West,260,0.0,0.0,92,0.00,,,0.14,Wunderground v.1.13,2013-02-20 02:36:00,
2013-02-19 21:42:00,42.9,40.7,29.89,West,260,0.0,0.0,92,0.00,,,0.14,Wunderground v.1.13,2013-02-20 02:42:00,
2013-02-19 21:48:00,42.8,40.6,29.89,West,260,0.0,0.0,92,0.00,,,0.14,Wunderground v.1.13,2013-02-20 02:48:00,
2013-02-19 21:54:00,42.6,40.4,29.89,West,260,0.0,0.0,92,0.00,,,0.14,Wunderground v.1.13,2013-02-20 02:54:00,
2013-02-19 22:00:00,42.5,40.3,29.89,West,260,0.0,0.0,92,0.00,,,0.14,Wunderground v.1.13,2013-02-20 03:00:00,
2013-02-19 22:06:00,42.3,40.1,29.89,West,260,0.0,0.0,92,0.00,,,0.14,Wunderground v.1.13,2013-02-20 03:06:00,
2013-02-19 22:12:00,42.2,40.0,29.89,West,260,0.0,0.0,92,0.00,,,0.14,Wunderground v.1.13,2013-02-20 03:12:00,
2013-02-19 22:18:00,41.9,39.7,29.90,West,260,0.0,0.0,92,0.00,,,0.14,Wunderground v.1.13,2013-02-20 03:18:00,
2013-02-19 22:24:00,41.8,39.6,29.90,West,260,0.0,0.0,92,0.00,,,0.14,Wunderground v.1.13,2013-02-20 03:24:00,
2013-02-19 22:30:00,41.6,39.4,29.90,West,260,0.0,0.0,92,0.00,,,0.14,Wunderground v.1.13,2013-02-20 03:30:00,
2013-02-19 22:36:00,41.5,39.3,29.90,West,260,0.0,0.0,92,0.00,,,0.14,Wunderground v.1.13,2013-02-20 03:36:00,
2013-02-19 22:42:00,41.3,39.2,29.90,West,260,0.0,0.0,92,0.00,,,0.14,Wunderground v.1.13,2013-02-20 03:42:00,
2013-02-19 22:48:00,41.2,39.3,29.90,West,260,0.0,0.0,93,0.00,,,0.14,Wunderground v.1.13,2013-02-20 03:48:00,
2013-02-19 22:54:00,41.1,39.2,29.90,West,260,0.0,0.0,93,0.00,,,0.14,Wunderground v.1.13,2013-02-20 03:54:00,
2013-02-19 23:00:00,40.9,39.0,29.90,West,260,0.0,0.0,93,0.00,,,0.14,Wunderground v.1.13,2013-02-20 04:00:00,
2013-02-19 23:06:00,40.6,38.5,29.90,West,260,0.0,0.0,92,0.00,,,0.14,Wunderground v.1.13,2013-02-20 04:06:00,
2013-02-19 23:12:00,40.3,38.2,29.90,West,260,0.0,0.0,92,0.00,,,0.14,Wunderground v.1.13,2013-02-20 04:12:00,
2013-02-19 23:18:00,40.1,38.0,29.90,West,260,0.0,0.0,92,0.00,,,0.14,Wunderground v.1.13,2013-02-20 04:18:00,
2013-02-19 23:24:00,39.9,37.8,29.90,West,260,0.0,0.0,92,0.00,,,0.14,Wunderground v.1.13,2013-02-20 04:24:00,
2013-02-19 23:30:00,39.6,37.5,29.90,West,260,0.0,0.0,92,0.00,,,0.14,Wunderground v.1.13,2013-02-20 04:30:00,
2013-02-19 23:36:00,39.5,37.4,29.90,West,260,0.0,0.0,92,0.00,,,0.14,Wunderground v.1.13,2013-02-20 04:36:00,
2013-02-19 23:42:00,39.3,37.2,29.90,West,260,0.0,0.0,92,0.00,,,0.14,Wunderground v.1.13,2013-02-20 04:42:00,
2013-02-19 23:48:00,39.1,37.0,29.90,West,260,0.0,0.0,92,0.00,,,0.14,Wunderground v.1.13,2013-02-20 04:48:00,
2013-02-19 23:54:00,38.9,36.8,29.90,West,260,0.0,0.0,92,0.00,,,0.14,Wunderground v.1.13,2013-02-20 04:54:00,